TimeCDT,TemperatureF,Dew PointF,Humidity,Sea Level PressureIn,VisibilityMPH,Wind Direction,Wind SpeedMPH,Gust SpeedMPH,PrecipitationIn,Events,Conditions,WindDirDegrees,DateUTC
12:53 AM,68.0,64.0,87,29.67,6.0,SSE,10.4,21.9,N/A,,Overcast,160,2013-04-09 05:53:00
1:40 AM,69.1,64.9,87,29.71,6.0,SSE,12.7,21.9,N/A,,Overcast,160,2013-04-09 06:40:00
1:53 AM,69.1,64.0,84,29.67,6.0,SSE,10.4,23.0,N/A,,Haze,160,2013-04-09 06:53:00
2:53 AM,69.1,63.0,81,29.66,6.0,SSE,16.1,27.6,N/A,,Haze,160,2013-04-09 07:53:00
3:53 AM,70.0,62.1,76,29.63,6.0,South,15.0,33.4,N/A,,Haze,170,2013-04-09 08:53:00
4:53 AM,69.1,63.0,81,29.64,7.0,South,12.7,23.0,N/A,,Overcast,170,2013-04-09 09:53:00
5:53 AM,69.1,62.1,78,29.65,8.0,South,12.7,21.9,N/A,,Overcast,170,2013-04-09 10:53:00
6:53 AM,69.1,62.1,78,29.65,8.0,SSE,12.7,25.3,N/A,,Overcast,160,2013-04-09 11:53:00
7:53 AM,69.1,63.0,81,29.64,6.0,SSE,13.8,21.9,N/A,,Haze,160,2013-04-09 12:53:00
8:53 AM,69.1,64.0,84,29.64,6.0,SSE,13.8,24.2,N/A,,Haze,160,2013-04-09 13:53:00
9:53 AM,70.0,64.0,81,29.65,6.0,SSE,11.5,28.8,N/A,,Haze,150,2013-04-09 14:53:00
10:53 AM,71.1,64.0,78,29.66,5.0,South,17.3,26.5,N/A,,Haze,170,2013-04-09 15:53:00
11:29 AM,71.1,64.9,81,29.72,5.0,South,12.7,25.3,N/A,,Haze,180,2013-04-09 16:29:00
11:51 AM,69.8,64.4,83,29.73,2.5,South,12.7,28.8,0.00,Rain,Light Rain,180,2013-04-09 16:51:00
11:53 AM,70.0,64.9,84,29.69,2.5,South,13.8,24.2,0.00,Rain,Light Rain,170,2013-04-09 16:53:00
12:12 PM,69.1,66.0,90,29.73,1.8,South,10.4,19.6,0.00,Rain,Light Rain,170,2013-04-09 17:12:00
12:33 PM,69.1,66.0,90,29.73,1.5,SSE,9.2,-,0.00,,Overcast,160,2013-04-09 17:33:00
12:45 PM,69.1,66.0,90,29.72,2.0,SSE,6.9,-,0.00,,Overcast,150,2013-04-09 17:45:00
12:53 PM,69.1,66.0,90,29.68,2.5,SSE,5.8,-,0.00,,Overcast,160,2013-04-09 17:53:00
1:01 PM,69.1,66.0,90,29.72,3.0,SSE,8.1,-,N/A,,Overcast,160,2013-04-09 18:01:00
1:44 PM,72.0,64.9,78,29.71,5.0,SSE,10.4,18.4,N/A,,Haze,160,2013-04-09 18:44:00
1:53 PM,72.0,64.9,78,29.65,5.0,SSE,12.7,18.4,N/A,,Haze,160,2013-04-09 18:53:00
2:53 PM,77.0,66.0,69,29.62,6.0,SE,10.4,17.3,N/A,,Haze,130,2013-04-09 19:53:00
3:03 PM,77.0,64.9,66,29.67,6.0,SE,11.5,23.0,N/A,,Haze,140,2013-04-09 20:03:00
3:53 PM,79.0,64.9,62,29.60,7.0,Variable,6.9,-,N/A,,Overcast,0,2013-04-09 20:53:00
4:53 PM,82.0,64.9,56,29.58,8.0,SE,8.1,-,N/A,,Scattered Clouds,130,2013-04-09 21:53:00
5:53 PM,82.9,64.0,53,29.57,8.0,SE,15.0,24.2,N/A,,Clear,140,2013-04-09 22:53:00
6:53 PM,82.0,64.0,54,29.57,8.0,SE,10.4,20.7,N/A,,Clear,140,2013-04-09 23:53:00
7:53 PM,78.1,64.9,64,29.59,8.0,SE,11.5,19.6,N/A,,Clear,130,2013-04-10 00:53:00
8:53 PM,75.0,66.0,73,29.62,9.0,ESE,9.2,-,N/A,,Overcast,120,2013-04-10 01:53:00
9:09 PM,75.0,66.0,73,29.68,8.0,ESE,10.4,-,N/A,,Overcast,120,2013-04-10 02:09:00
9:53 PM,73.9,66.0,76,29.65,8.0,SE,12.7,21.9,N/A,,Overcast,130,2013-04-10 02:53:00
10:53 PM,73.0,66.9,81,29.65,6.0,SE,15.0,21.9,N/A,,Haze,140,2013-04-10 03:53:00
11:53 PM,73.0,66.0,79,29.65,6.0,SE,17.3,26.5,N/A,,Haze,140,2013-04-10 04:53:00